When you browse on this site, cookies collect data to enhance your experience and personalize the content and advertising you see.
Visit our Privacy Policy to learn more. By continuing to use the site, you agree to this use of cookies and data.

Hourly Weather Bolgatanga

Today, 14 July, Tuesday

Time Temperature Precipitation Wind Pressure Humidity
00:00 +26°C° 0 mm 2 mps 742 mmHg 84%
01:00 +26°C° 0 mm 2 mps 742 mmHg 85%
02:00 +26°C° 0 mm 2 mps 741 mmHg 86%
03:00 +25°C° 0 mm 2 mps 741 mmHg 88%
04:00 +25°C° 0 mm 3 mps 741 mmHg 89%
05:00 +25°C° 0 mm 3 mps 741 mmHg 90%
06:00 +25°C° 0 mm 3 mps 741 mmHg 92%
07:00 +26°C° 0 mm 4 mps 742 mmHg 87%
08:00 +27°C° 0 mm 4 mps 742 mmHg 83%
09:00 +28°C° 0 mm 5 mps 742 mmHg 79%
10:00 +28°C° 0 mm 5 mps 742 mmHg 75%
11:00 +29°C° 0 mm 5 mps 742 mmHg 71%
12:00 +30°C° 0 mm 5 mps 742 mmHg 67%
13:00 +30°C° 0 mm 4 mps 741 mmHg 67%
14:00 +30°C° 0 mm 4 mps 740 mmHg 66%
15:00 +30°C° 0 mm 4 mps 739 mmHg 66%
16:00 +30°C° 0 mm 4 mps 740 mmHg 67%
17:00 +30°C° 0 mm 3 mps 740 mmHg 68%
18:00 +29°C° 0 mm 3 mps 740 mmHg 69%
19:00 +29°C° 0 mm 3 mps 740 mmHg 72%
20:00 +28°C° 0 mm 2 mps 741 mmHg 75%
21:00 +27°C° 0 mm 2 mps 741 mmHg 78%
22:00 +27°C° 0.1 mm 3 mps 741 mmHg 78%
23:00 +27°C° 0.1 mm 3 mps 741 mmHg 79%

Tomorrow, 15 July, Wednesday

Time Temperature Precipitation Wind Pressure Humidity
00:00 +27°C° 0.1 mm 3 mps 741 mmHg 79%
01:00 +26°C° 0.4 mm 3 mps 741 mmHg 81%
02:00 +26°C° 0.4 mm 4 mps 741 mmHg 82%
03:00 +26°C° 0.4 mm 4 mps 741 mmHg 83%
04:00 +26°C° 0.1 mm 4 mps 741 mmHg 84%
05:00 +26°C° 0.1 mm 3 mps 741 mmHg 86%
06:00 +25°C° 0.1 mm 3 mps 742 mmHg 87%
07:00 +26°C° 0 mm 4 mps 742 mmHg 85%
08:00 +26°C° 0 mm 4 mps 743 mmHg 83%
09:00 +27°C° 0 mm 4 mps 743 mmHg 81%
10:00 +28°C° 0 mm 4 mps 743 mmHg 76%
11:00 +29°C° 0 mm 4 mps 743 mmHg 71%
12:00 +30°C° 0 mm 4 mps 743 mmHg 66%
13:00 +30°C° 0 mm 4 mps 742 mmHg 63%
14:00 +32°C° 0 mm 4 mps 741 mmHg 61%
15:00 +33°C° 0 mm 4 mps 741 mmHg 58%
16:00 +31°C° 0.2 mm 3 mps 741 mmHg 61%
17:00 +31°C° 0.2 mm 3 mps 741 mmHg 64%
18:00 +30°C° 0.2 mm 2 mps 741 mmHg 68%
19:00 +29°C° 0 mm 2 mps 741 mmHg 71%
20:00 +28°C° 0 mm 2 mps 742 mmHg 74%
21:00 +27°C° 0 mm 2 mps 742 mmHg 77%
22:00 +27°C° 0 mm 2 mps 742 mmHg 78%
23:00 +27°C° 0 mm 2 mps 742 mmHg 80%

Day after tomorrow, 16 July, Thursday

Time Temperature Precipitation Wind Pressure Humidity
00:00 +26°C° 0 mm 2 mps 742 mmHg 81%
01:00 +26°C° 0 mm 2 mps 742 mmHg 82%
02:00 +26°C° 0 mm 2 mps 742 mmHg 83%
03:00 +25°C° 0 mm 2 mps 742 mmHg 84%
04:00 +25°C° 0 mm 2 mps 742 mmHg 84%
05:00 +25°C° 0 mm 2 mps 743 mmHg 84%
06:00 +25°C° 0 mm 2 mps 743 mmHg 85%
07:00 +26°C° 0 mm 3 mps 743 mmHg 80%
08:00 +27°C° 0 mm 3 mps 744 mmHg 75%
09:00 +28°C° 0 mm 4 mps 745 mmHg 71%
10:00 +29°C° 0 mm 4 mps 744 mmHg 67%
11:00 +30°C° 0 mm 3 mps 744 mmHg 63%
12:00 +31°C° 0 mm 3 mps 744 mmHg 60%
13:00 +33°C° 0 mm 3 mps 743 mmHg 56%
14:00 +34°C° 0 mm 3 mps 742 mmHg 52%
15:00 +35°C° 0 mm 2 mps 742 mmHg 48%
16:00 +34°C° 0 mm 2 mps 742 mmHg 52%
17:00 +32°C° 0 mm 2 mps 742 mmHg 55%
18:00 +32°C° 0 mm 2 mps 742 mmHg 58%
19:00 +30°C° 1.3 mm 2 mps 742 mmHg 64%
20:00 +29°C° 1.3 mm 2 mps 743 mmHg 71%
21:00 +28°C° 1.3 mm 2 mps 743 mmHg 77%
22:00 +27°C° 0.4 mm 2 mps 743 mmHg 80%
23:00 +27°C° 0.4 mm 2 mps 743 mmHg 82%

17 July, Friday

Time Temperature Precipitation Wind Pressure Humidity
00:00 +27°C° 0.4 mm 1 mps 743 mmHg 85%
01:00 +26°C° 0.3 mm 2 mps 743 mmHg 86%
02:00 +26°C° 0.3 mm 2 mps 742 mmHg 86%
03:00 +26°C° 0.3 mm 2 mps 742 mmHg 87%
04:00 +26°C° 0.4 mm 2 mps 742 mmHg 87%
05:00 +26°C° 0.4 mm 2 mps 742 mmHg 88%
06:00 +26°C° 0.4 mm 2 mps 742 mmHg 88%
07:00 +27°C° 0 mm 2 mps 743 mmHg 83%
08:00 +28°C° 0 mm 2 mps 743 mmHg 77%
09:00 +29°C° 0 mm 3 mps 743 mmHg 72%
10:00 +31°C° 0.3 mm 3 mps 743 mmHg 67%
11:00 +33°C° 0.3 mm 4 mps 742 mmHg 62%
12:00 +34°C° 0.3 mm 4 mps 742 mmHg 57%
13:00 +33°C° 2.7 mm 3 mps 741 mmHg 63%
14:00 +31°C° 2.7 mm 3 mps 741 mmHg 69%
15:00 +30°C° 2.7 mm 3 mps 740 mmHg 75%
16:00 +29°C° 1.8 mm 3 mps 740 mmHg 79%
17:00 +28°C° 1.8 mm 3 mps 740 mmHg 83%
18:00 +27°C° 1.8 mm 3 mps 740 mmHg 87%
19:00 +27°C° 0.7 mm 2 mps 741 mmHg 89%
20:00 +27°C° 0.7 mm 2 mps 742 mmHg 90%
21:00 +26°C° 0.7 mm 2 mps 742 mmHg 91%
22:00 +26°C° 0.2 mm 2 mps 742 mmHg 91%
23:00 +26°C° 0.2 mm 2 mps 742 mmHg 91%

18 July, Saturday

Time Temperature Precipitation Wind Pressure Humidity
00:00 +26°C° 0.2 mm 2 mps 742 mmHg 91%
01:00 +26°C° 0 mm 2 mps 742 mmHg 91%
02:00 +26°C° 0 mm 2 mps 742 mmHg 91%
03:00 +26°C° 0 mm 2 mps 742 mmHg 92%
04:00 +25°C° 0 mm 2 mps 742 mmHg 92%
05:00 +25°C° 0 mm 2 mps 742 mmHg 93%
06:00 +25°C° 0 mm 2 mps 742 mmHg 93%
07:00 +26°C° 0 mm 3 mps 742 mmHg 89%
08:00 +27°C° 0 mm 3 mps 743 mmHg 84%
09:00 +28°C° 0 mm 4 mps 743 mmHg 79%
10:00 +28°C° 0 mm 4 mps 743 mmHg 75%
11:00 +29°C° 0 mm 4 mps 743 mmHg 71%
12:00 +30°C° 0 mm 4 mps 743 mmHg 66%
13:00 +32°C° 0 mm 4 mps 742 mmHg 66%
14:00 +31°C° 0 mm 3 mps 741 mmHg 65%
15:00 +31°C° 0 mm 3 mps 741 mmHg 64%
16:00 +31°C° 0 mm 3 mps 741 mmHg 66%
17:00 +30°C° 0 mm 3 mps 741 mmHg 68%
18:00 +30°C° 0 mm 2 mps 741 mmHg 70%
19:00 +29°C° 0 mm 2 mps 741 mmHg 73%
20:00 +28°C° 0 mm 2 mps 742 mmHg 75%
21:00 +27°C° 0 mm 2 mps 742 mmHg 77%
22:00 +27°C° 0 mm 2 mps 742 mmHg 78%
23:00 +27°C° 0 mm 2 mps 742 mmHg 78%

19 July, Sunday

Time Temperature Precipitation Wind Pressure Humidity
00:00 +27°C° 0 mm 2 mps 742 mmHg 78%
01:00 +27°C° 0.1 mm 2 mps 742 mmHg 80%
02:00 +26°C° 0.1 mm 1 mps 742 mmHg 81%
03:00 +26°C° 0.1 mm 1 mps 742 mmHg 83%
04:00 +26°C° 0.1 mm 2 mps 742 mmHg 84%
05:00 +25°C° 0.1 mm 2 mps 742 mmHg 86%
06:00 +25°C° 0.1 mm 2 mps 742 mmHg 87%
07:00 +27°C° 0 mm 3 mps 743 mmHg 81%
08:00 +28°C° 0 mm 4 mps 743 mmHg 76%
09:00 +29°C° 0 mm 4 mps 744 mmHg 70%
10:00 +30°C° 0 mm 4 mps 743 mmHg 67%
11:00 +32°C° 0 mm 4 mps 743 mmHg 63%
12:00 +33°C° 0 mm 4 mps 742 mmHg 60%
13:00 +33°C° 0 mm 4 mps 742 mmHg 59%
14:00 +34°C° 0 mm 3 mps 741 mmHg 57%
15:00 +34°C° 0 mm 3 mps 740 mmHg 56%
16:00 +33°C° 0 mm 3 mps 740 mmHg 59%
17:00 +33°C° 0 mm 3 mps 740 mmHg 62%
18:00 +31°C° 0 mm 3 mps 740 mmHg 66%
19:00 +30°C° 0 mm 3 mps 740 mmHg 69%
20:00 +29°C° 0 mm 3 mps 741 mmHg 72%
21:00 +28°C° 0 mm 3 mps 741 mmHg 75%
22:00 +28°C° 0 mm 2 mps 741 mmHg 76%
23:00 +28°C° 0 mm 2 mps 741 mmHg 77%
Show more